ATLAS 5 CENTAUR DEB, 46661

Orbit data source: Space-Track

ATLAS 5 CENTAUR DEB, 46661 is space debris in HEO originally from a launch on Wed, 17 Oct 2018 UTC launched from the Air Force Eastern Test Range (AFETR). Debris objects in space refer to the collection of defunct objects orbiting the Earth. Examples of debris include non-operational satellites, rocket bodies, and fragments generated from explosions, collisions, or faulty payload assembly.

Loading next visibility...
Identifier
46661, 2018-079CP
Orbit
HEO
Country
Flag of USUS
Related business
Flag of USUnited Launch Alliance/Lockheed Martin (US)
Manufacturer
ULA Decatur
Mission
Spacecraft
Bus & Motor
Unknown
Mass
Unknown
Launch date (UTC)
2018-10-17 (8 years ago)
Launch vehicle
Unknown
Launch site
Air Force Eastern Test Range (AFETR)
Object type
Payload
Rocket body
Debris
Shape & HBR
Unknown shape, 1.1 m
Radar Cross Section
RCS unknown

Expand to show TLE details & history
Last TLE update: 1 week ago

TLE from 1 week ago
0 ATLAS 5 CENTAUR DEB
1 46661U 18079CP  26231.09634879 -.00000176  00000-0  00000-0 0  9993
2 46661  13.5781  31.5106 4505519 318.0595  14.9223  1.82944119 39176
Epoch: 2026-08-19T02:18Z
TLE epoch observation values (Epoch: 2026-08-19T02:18:44.535Z)
Latitude
-0.00008°
Longitude
29.40908°
Altitude
10,468.754 km
Speed
5.762 km/s
True Right ascension
02h 06m 11s
True Declination
0° 00' 00"
Sunlit
Object was in daylight at epoch
Visualization orbit readout
Latitude
Unknown
Longitude
Unknown
Altitude
Unknown
Speed
Unknown
Apparent Right ascension
Unknown
Apparent Declination
Unknown
Sunlit
N/A
Visualization observer readout
Local Sidereal Time
09:25:27
Azimuth
Unknown
Elevation
Unknown
Doppler factor
Unknown
Orbital elements
Apogee altitude
34,587.59 km
Perigee altitude
9,139.088 km
Semi-major axis
28,241.476 km
Eccentricity
0.45055
Inclination
13.5781°
RAAN
31.5106°
Arg. of periapsis
318.0595°
True anomaly
41.72441°
Mean anomaly
14.9223°
Eccentric anomaly
26.40073°
Mean motion
0.45731 °/min
Orbital period
787.21 mins
BSTAR
0
Loading maneuver chart data...
Computing Atmospheric mass density...

Documentation

Showing up to 5 results
|